Location: Ferchesar
(52.6477°N, 12.4298°E)
Time: 02:26:34
(UTC+01:00)

Transit 2A - Pass Details

Date: 15 December 2021
Orbit: 591 x 967 km, 66.7° (Epoch: 17 January)

Event Time Altitude Azimuth Distance (km) Brightness Sun altitude
Exits shadow 03:54:28 32° 37° (NE) 1,613 7.9 -38.0°
Drops below altitude 10° 03:59:25 10° 88° (E) 2,670 9.5 -37.2°
Sets 04:02:13 0° 99° (E) 3,578 10.3 -36.8°
